Location: Montbazon
(47.2835°N, 0.6999°E)
Time: 01:13:09
(UTC+00:00)

Daily predictions for brighter satellites

Satellite Brightness Start Highest point End
(mag) Time Altitude Azimuth Time Altitude Azimuth Time Altitude Azimuth
ACS3 Solar Sail 4.3 02:02:10 10° NE 02:03:45 15° ENE 02:03:45 15° ENE
Cosmos 2219 Rocket 4.2 02:55:06 25° ENE 02:55:06 25° ENE 02:57:55 10° NE
USA 267 3.6 03:14:48 10° NE 03:20:18 62° E 03:20:18 62° E
H-2A R/B 4.4 03:27:21 10° NNE 03:28:04 14° NNE 03:28:04 14° NNE
Cosmos 2278 Rocket 4.2 03:29:48 17° N 03:32:35 24° NE 03:37:05 10° E
Cosmos 2333 Rocket 3.7 03:39:30 27° N 03:39:30 27° N 03:42:10 10° NNE
COSMOS 2455 3.7 03:45:06 42° N 03:45:06 42° N 03:49:08 10° NNE
ACS3 Solar Sail 2.4 03:43:53 10° N 03:47:53 44° N 03:47:53 44° N
BlueWalker 3 4.5 03:53:51 18° E 03:53:51 18° E 03:54:56 10° E
CENTAUR R/B 4.4 03:52:19 20° NNW 03:55:22 25° NNE 04:02:11 10° ENE
Cosmos 2360 Rocket 3.3 03:59:09 34° N 03:59:09 34° N 04:02:32 10° NNE
Cosmos 2322 Rocket 3.4 03:59:31 31° N 03:59:31 31° N 04:02:42 10° NNE
USA 234 3.1 03:51:44 10° SE 03:58:18 84° SW 03:58:53 75° W
Gbstr 26 Del rocket 4.2 03:59:16 44° SE 03:59:16 44° SE 04:04:29 10° ENE
SL-16 R/B 3.9 04:06:02 21° N 04:06:02 21° N 04:08:22 10° N
Cosmos 44 Rocket 3.9 04:05:02 53° NNE 04:05:33 56° NE 04:10:37 10° SE
Cosmos 1943 Rocket 3.3 04:06:17 18° N 04:09:55 40° NE 04:15:04 10° ESE
Okean 1-7 4.3 04:13:10 32° NNE 04:13:10 32° NNE 04:15:31 10° NNE
ARGOS 3.0 04:10:16 10° NNE 04:15:43 84° WNW 04:16:17 72° SW
PAYLOAD A 4.2 04:11:06 10° NNE 04:16:33 75° ESE 04:20:30 18° S
Cosmos 1140 Rocket 3.8 04:15:56 31° N 04:18:16 62° ENE 04:23:19 10° SE
Timation 2 Rocket 4.4 04:14:49 18° NNW 04:19:59 64° ENE 04:26:20 10° SE
CZ-2C R/B 2.3 04:16:02 10° NNE 04:21:03 85° WNW 04:21:33 73° SSW
Cosmos 1809 Rocket 4.3 04:17:03 10° S 04:23:10 90° WNW 04:29:18 10° N
ADEOS Rocket 3.6 04:19:57 10° N 04:25:41 44° WNW 04:25:41 44° WNW
NOSS 3-1 (C) 3.0 04:27:24 53° SSW 04:28:31 76° SE 04:34:08 10° NE
SJ 16-02 4.1 04:29:45 10° NNE 04:31:55 13° NE 04:34:03 10° E
Cosmos 2100 Rocket 3.9 04:26:13 10° N 04:32:25 90° W 04:38:35 10° S
Cosmos 2219 Rocket 2.5 04:36:50 44° NW 04:36:50 44° NW 04:42:07 10° NNE
SL-24 R/B - RUBIN 2 4.1 04:39:23 52° WNW 04:39:37 52° NW 04:44:27 10° NNE
IRS-1D 4.3 04:36:13 10° NNE 04:41:04 50° E 04:45:50 10° S
COSMOS 2428 2.6 04:41:30 14° SSW 04:46:28 88° ESE 04:52:12 10° NNE
USA 59 Rocket -0.1 04:50:47 45° NNE 04:50:47 45° NNE 04:53:00 10° NE
SL-08 RB Rocket 3.7 04:48:11 10° N 04:52:37 52° WNW 04:53:29 45° WSW
Cosmos 1459 Rocket 3.9 04:47:16 10° NNW 04:53:39 71° W 04:59:55 10° S
Cosmos 2322 3.6 04:50:01 21° SW 04:53:56 72° WNW 04:59:38 10° NNE
Cosmos 1864 Rocket 4.5 04:48:14 10° N 04:54:32 90° W 05:00:52 10° S
FengYun 1-2 T 4.2 04:52:05 10° NNE 04:57:40 89° ESE 05:03:17 10° SSW
COSMO-SKYMED 1 3.3 04:54:32 10° SSE 04:58:32 51° ENE 05:02:33 10° N
Meteor 2-21 4.3 04:52:46 10° SSW 04:58:50 67° WNW 05:04:54 10° N
SKYMED 2 3.7 04:55:29 10° SSE 04:59:48 74° ENE 05:04:10 10° N
Cosmos 407 Rocket 3.6 04:55:06 10° NNW 05:00:14 74° ENE 05:05:20 10° SSE
Cosmos 1023 Rocket 4.5 04:58:46 27° NW 05:01:19 54° WSW 05:06:13 10° S
Cosmos 1727 Rocket 4.1 04:55:31 10° SSW 05:01:26 47° WNW 05:07:27 10° N
Cosmos 2228 Rocket 3.8 05:03:29 33° NW 05:03:29 33° NW 05:06:44 10° N
Cosmos 1725 Rocket 3.9 04:57:43 10° N 05:04:05 85° W 05:10:24 10° S
USA 267 3.5 04:57:56 10° NE 05:04:13 51° NNW 05:07:39 27° W
Cosmos 1980 4.2 05:00:44 10° S 05:06:16 60° ESE 05:11:51 10° NNE
H-2A R/B 4.1 05:08:20 10° NNW 05:08:34 11° NNW 05:08:34 11° NNW
Cosmos 1802 Rocket 3.9 05:05:38 10° NNW 05:11:58 68° W 05:18:12 10° S
Cosmos 1269 Rocket 4.3 05:09:27 23° NW 05:12:19 42° WSW 05:17:15 10° S
NOSS 3-1 (A) 3.2 05:08:04 10° SSW 05:12:41 69° SE 05:18:17 10° NE
Cosmos 2233 Rocket 4.1 05:08:57 10° N 05:15:19 82° E 05:21:36 10° S
Cosmos 1328 3.7 05:12:11 10° SSW 05:15:43 48° WNW 05:19:16 10° N
Cosmos 1703 Rocket 3.5 05:12:47 10° SSW 05:17:05 62° WNW 05:21:27 10° N
Cosmos 2278 Rocket 2.1 05:11:40 10° NNW 05:17:13 73° WSW 05:22:51 10° SSE
Cosmos 2251 Rocket 4.0 05:13:44 10° NNW 05:19:04 62° ENE 05:24:22 10° SE
NOSS 2-1 (E) 3.0 05:18:52 35° W 05:19:50 48° NW 05:22:51 10° NNE
CZ-3 R/B 4.1 05:13:51 10° SW 05:20:20 16° S 05:24:17 10° SSE
Lacrosse 5 rocket 2.8 05:20:39 16° NNW 05:21:18 17° N 05:23:36 10° NE
Meteor 2-16 Rocket 4.3 05:15:21 10° SSW 05:21:25 73° W 05:27:34 10° N
Cosmos 1939 Rocket 3.4 05:18:23 10° N 05:21:52 33° WNW 05:23:42 22° WSW
Cosmos 2333 Rocket 3.9 05:21:32 14° NW 05:22:09 14° NW 05:25:14 10° N
Cosmos 2237 Rocket 2.4 05:16:52 10° SSW 05:22:31 75° ESE 05:28:11 10° NNE
Cosmos 2173 Rocket 4.3 05:17:13 10° NNW 05:22:49 40° W 05:28:25 10° SSW
SL-08 R/B 4.4 05:20:06 10° NNW 05:26:11 72° W 05:32:19 10° S
Cosmos 2292 Rocket 3.7 05:23:22 10° SSW 05:27:31 73° W 05:32:57 10° N
BlueWalker 3 2.7 05:27:40 26° WSW 05:28:51 32° SW 05:32:06 10° SSE
USA 276 3.3 05:29:39 20° SW 05:29:53 21° SSW 05:32:02 10° SSE
COSMOS 2455 4.3 05:28:15 17° NW 05:30:16 19° NNW 05:34:31 10° NNE
ACS3 Solar Sail 3.2 05:28:35 10° NNW 05:31:58 16° NW 05:32:02 16° NW
Meteor 1-24 Rocket 3.9 05:26:36 10° SSW 05:32:13 51° WNW 05:37:41 10° N
Helios 1A Rocket 2.7 05:29:43 10° S 05:32:58 44° W 05:36:15 10° NNW
Cosmos 2369 Rocket 4.0 05:29:50 10° N 05:34:43 29° NE 05:39:37 10° ESE
CZ-4 R/B 3.9 05:31:37 10° N 05:36:27 58° WNW 05:41:09 10° SSW
Cosmos 1782 Rocket 3.6 05:34:06 10° NNW 05:38:27 59° W 05:42:43 10° S
USA 234 4.3 05:36:34 10° S 05:41:55 27° SW 05:46:14 14° WNW
Cosmos 2360 Rocket 3.9 05:40:55 12° NW 05:42:20 13° NW 05:45:04 10° N
Cosmos 2322 Rocket 4.0 05:41:20 11° NW 05:42:45 12° NNW 05:45:06 10° N
Cosmos 2123 Rocket 4.3 05:37:05 10° SW 05:42:58 43° WNW 05:48:51 10° N
Meteor 2-5 Rocket 4.0 05:37:43 10° SSW 05:43:25 47° WNW 05:49:04 10° N
Cosmos 1420 Rocket 4.1 05:39:25 10° SSW 05:44:41 82° ESE 05:50:01 10° NNE
Gbstr 26 Del rocket 3.7 05:41:19 15° W 05:45:33 69° NNW 05:51:49 10° ENE
NOAA 12 4.2 05:40:31 10° N 05:45:44 58° WNW 05:50:56 10° SSW
Cosmos 44 Rocket 4.5 05:43:41 16° WNW 05:46:41 26° WSW 05:50:55 10° S
CENTAUR R/B 4.1 05:40:28 10° NW 05:48:04 47° NE 05:56:53 10° ESE
Cosmos 1943 Rocket 2.7 05:48:34 10° NW 05:53:35 36° WSW 05:58:33 10° S
Cosmos 2016 Rocket 4.4 05:48:15 10° NNW 05:54:07 40° W 05:59:58 10° SSW
Cosmos 1812 2.7 05:54:31 10° N 05:57:25 55° E 06:00:17 10° SSE
CZ-2C R/B 4.1 05:55:48 10° NNW 05:58:23 14° NW 06:00:45 11° W
Cosmos 1300 Rocket 4.2 05:54:57 10° NNW 05:58:50 32° W 06:02:40 10° SSW
SMAP 4.4 05:55:35 10° NNE 06:00:04 45° E 06:04:31 10° S
Cosmos 2346 Rocket 4.4 05:55:27 10° SSW 06:01:35 74° W 06:07:44 10° N
NOSS 2-1 (C) 4.3 06:00:52 12° WNW 06:02:40 18° NW 06:04:51 10° N
NOSS 2-1 (D) 4.5 06:04:54 11° WNW 06:06:42 16° NW 06:08:40 10° N
SJ 16-02 1.3 06:06:21 10° NNW 06:10:40 83° WSW 06:14:56 10° SSE
Iridium 4 Rocket 4.2 06:08:12 10° NNW 06:11:26 21° W 06:14:32 10° SW
Aureole 3 Rocket 3.4 06:07:30 10° NNW 06:11:46 72° W 06:17:41 10° S
Cosmos 2061 Rocket 4.4 06:08:46 10° NNW 06:14:32 41° W 06:20:15 10° SSW
CBERS-1 4.0 06:10:46 10° NNE 06:15:54 78° WNW 06:21:00 10° SSW
SWARM A 4.1 06:13:23 10° S 06:16:41 72° W 06:20:01 10° N
Cosmos 1378 Rocket 3.6 06:14:59 10° S 06:19:16 86° E 06:23:34 10° N
IRS-1D 4.5 06:15:57 10° N 06:19:54 24° WNW 06:23:49 10° WSW
NOSS 3-1 (C) 4.2 06:15:35 10° W 06:19:56 28° NNW 06:25:07 10° NNE
Cosmos 1190 Rocket 4.3 06:15:03 10° NNW 06:20:08 51° WSW 06:25:11 10° S
SL-16 R/B 2.9 06:15:11 10° SSW 06:20:46 63° ESE 06:26:25 10° NNE
Cosmos 676 Rocket 4.0 06:15:56 10° NNW 06:21:13 80° WSW 06:26:24 10° SSE
In-Cosmos 22 Rocket 4.3 06:15:52 10° SSW 06:21:40 76° WNW 06:27:32 10° N
